Time,TemperatureF,DewpointF,PressureIn,WindDirection,WindDirectionDegrees,WindSpeedMPH,WindSpeedGustMPH,Humidity,HourlyPrecipIn,Conditions,Clouds,dailyrainin,SoftwareType,DateUTC
2013-01-31 00:00:00,40.8,40.8,29.40,SSE,163,0.0,1.0,100,0.00,,,0.48,Wunderground v.1.15,2013-01-31 05:00:00,
2013-01-31 00:10:00,40.5,40.5,29.38,SSE,163,0.0,0.0,100,0.13,,,0.02,Wunderground v.1.15,2013-01-31 05:10:00,
2013-01-31 00:15:00,40.3,40.3,29.37,SSE,163,0.0,0.0,100,0.08,,,0.02,Wunderground v.1.15,2013-01-31 05:15:00,
2013-01-31 00:20:00,40.2,40.2,29.37,SSE,163,0.0,1.0,100,0.05,,,0.02,Wunderground v.1.15,2013-01-31 05:20:00,
2013-01-31 00:25:00,40.2,40.2,29.36,East,90,1.0,1.0,100,0.04,,,0.03,Wunderground v.1.15,2013-01-31 05:25:00,
2013-01-31 00:35:00,41.1,41.1,29.34,SSE,155,1.0,8.0,100,0.04,,,0.03,Wunderground v.1.15,2013-01-31 05:35:00,
2013-01-31 00:45:00,43.5,43.5,29.33,SW,214,3.0,3.0,100,0.00,,,0.03,Wunderground v.1.15,2013-01-31 05:45:00,
2013-01-31 00:50:00,43.8,43.8,29.33,East,88,2.0,7.0,100,0.00,,,0.03,Wunderground v.1.15,2013-01-31 05:50:00,
2013-01-31 00:55:00,44.8,44.8,29.32,SSW,196,2.0,7.0,100,0.36,,,0.06,Wunderground v.1.15,2013-01-31 05:55:00,
2013-01-31 01:05:00,46.1,46.1,29.31,WSW,242,3.0,3.0,100,0.07,,,0.07,Wunderground v.1.15,2013-01-31 06:05:00,
2013-01-31 01:10:00,47.0,47.0,29.31,South,171,3.0,3.0,100,0.04,,,0.07,Wunderground v.1.15,2013-01-31 06:10:00,
2013-01-31 01:20:00,48.6,48.6,29.29,SSE,148,4.0,8.0,100,0.04,,,0.08,Wunderground v.1.15,2013-01-31 06:20:00,
2013-01-31 01:25:00,49.9,49.9,29.28,ESE,119,4.0,8.0,100,0.04,,,0.08,Wunderground v.1.15,2013-01-31 06:25:00,
2013-01-31 01:30:00,49.8,49.8,29.28,SE,128,3.0,3.0,100,0.00,,,0.08,Wunderground v.1.15,2013-01-31 06:30:00,
2013-01-31 01:35:00,49.8,49.8,29.28,SW,229,2.0,3.0,100,0.00,,,0.08,Wunderground v.1.15,2013-01-31 06:35:00,
2013-01-31 01:45:00,50.4,50.4,29.27,SSW,194,4.0,4.0,100,0.10,,,0.10,Wunderground v.1.15,2013-01-31 06:45:00,
2013-01-31 01:50:00,50.2,50.2,29.26,South,175,4.0,4.0,100,0.06,,,0.11,Wunderground v.1.15,2013-01-31 06:50:00,
2013-01-31 01:55:00,49.8,49.8,29.25,SE,132,5.0,5.0,100,0.20,,,0.13,Wunderground v.1.15,2013-01-31 06:55:00,
2013-01-31 02:05:00,50.1,50.1,29.24,SW,227,3.0,6.0,100,0.10,,,0.15,Wunderground v.1.15,2013-01-31 07:05:00,
2013-01-31 02:10:00,50.4,50.4,29.23,SSW,194,4.0,4.0,100,0.42,,,0.18,Wunderground v.1.15,2013-01-31 07:10:00,
2013-01-31 02:15:00,51.0,51.0,29.23,South,186,4.0,4.0,100,0.14,,,0.19,Wunderground v.1.15,2013-01-31 07:15:00,
2013-01-31 02:25:00,51.4,51.4,29.22,SSW,206,4.0,5.0,100,0.13,,,0.21,Wunderground v.1.15,2013-01-31 07:25:00,
2013-01-31 02:30:00,52.2,52.2,29.20,SW,228,5.0,6.0,100,0.07,,,0.22,Wunderground v.1.15,2013-01-31 07:30:00,
2013-01-31 02:40:00,52.0,52.0,29.18,South,169,5.0,5.0,100,0.09,,,0.23,Wunderground v.1.15,2013-01-31 07:40:00,
2013-01-31 02:45:00,52.3,52.3,29.18,SW,229,3.0,5.0,100,0.07,,,0.23,Wunderground v.1.15,2013-01-31 07:45:00,
2013-01-31 02:50:00,52.6,52.6,29.17,WNW,282,5.0,5.0,100,0.04,,,0.23,Wunderground v.1.15,2013-01-31 07:50:00,
2013-01-31 02:55:00,52.5,52.5,29.16,SE,146,6.0,6.0,100,0.00,,,0.23,Wunderground v.1.15,2013-01-31 07:55:00,
2013-01-31 03:05:00,52.5,52.5,29.16,South,169,6.0,7.0,100,0.00,,,0.23,Wunderground v.1.15,2013-01-31 08:05:00,
2013-01-31 03:10:00,53.5,53.5,29.15,SSW,204,7.0,7.0,100,0.00,,,0.23,Wunderground v.1.15,2013-01-31 08:10:00,
2013-01-31 03:20:00,53.2,53.2,29.14,SSE,167,4.0,4.0,100,0.12,,,0.25,Wunderground v.1.15,2013-01-31 08:20:00,
2013-01-31 03:25:00,53.3,53.3,29.12,ESE,108,5.0,10.0,100,0.07,,,0.25,Wunderground v.1.15,2013-01-31 08:25:00,
2013-01-31 03:30:00,52.5,52.5,29.12,SSW,196,5.0,5.0,100,0.04,,,0.25,Wunderground v.1.15,2013-01-31 08:30:00,
2013-01-31 03:35:00,52.0,52.0,29.12,South,185,4.0,16.0,100,0.00,,,0.25,Wunderground v.1.15,2013-01-31 08:35:00,
2013-01-31 03:45:00,52.8,52.8,29.09,SW,233,4.0,20.0,100,0.00,,,0.26,Wunderground v.1.15,2013-01-31 08:45:00,
2013-01-31 03:50:00,52.6,52.6,29.08,SE,128,4.0,15.0,100,0.00,,,0.26,Wunderground v.1.15,2013-01-31 08:50:00,
2013-01-31 03:55:00,52.9,52.9,29.08,SSE,160,5.0,15.0,100,0.07,,,0.27,Wunderground v.1.15,2013-01-31 08:55:00,
2013-01-31 04:00:00,52.9,52.9,29.07,SE,143,4.0,4.0,100,0.06,,,0.27,Wunderground v.1.15,2013-01-31 09:00:00,
2013-01-31 04:10:00,52.3,52.3,29.05,South,175,4.0,4.0,100,0.00,,,0.28,Wunderground v.1.15,2013-01-31 09:10:00,
2013-01-31 04:15:00,52.9,52.9,29.04,East,96,4.0,4.0,100,0.00,,,0.28,Wunderground v.1.15,2013-01-31 09:15:00,
2013-01-31 04:25:00,53.1,53.1,29.02,SW,218,4.0,4.0,100,0.00,,,0.28,Wunderground v.1.15,2013-01-31 09:25:00,
2013-01-31 04:30:00,53.8,53.8,29.02,SE,132,4.0,4.0,100,0.04,,,0.29,Wunderground v.1.15,2013-01-31 09:30:00,
2013-01-31 04:35:00,53.3,53.3,29.01,South,191,5.0,5.0,100,0.04,,,0.29,Wunderground v.1.15,2013-01-31 09:35:00,
2013-01-31 04:40:00,53.6,53.6,29.00,ESE,107,5.0,5.0,100,0.17,,,0.31,Wunderground v.1.15,2013-01-31 09:40:00,
2013-01-31 04:50:00,54.5,54.5,28.99,SW,223,6.0,6.0,100,0.25,,,0.33,Wunderground v.1.15,2013-01-31 09:50:00,
2013-01-31 04:55:00,54.7,54.7,28.99,WSW,257,5.0,8.0,100,0.66,,,0.37,Wunderground v.1.15,2013-01-31 09:55:00,
2013-01-31 05:00:00,54.4,54.4,28.99,East,93,4.0,6.0,100,0.25,,,0.39,Wunderground v.1.15,2013-01-31 10:00:00,
2013-01-31 05:10:00,54.5,54.5,28.97,SSW,194,3.0,3.0,100,0.25,,,0.44,Wunderground v.1.15,2013-01-31 10:10:00,
2013-01-31 05:15:00,55.3,55.3,28.97,SSE,150,5.0,5.0,100,0.16,,,0.46,Wunderground v.1.15,2013-01-31 10:15:00,
2013-01-31 05:20:00,55.3,55.3,28.97,SSW,205,5.0,6.0,100,0.16,,,0.47,Wunderground v.1.15,2013-01-31 10:20:00,
2013-01-31 05:30:00,54.7,54.7,28.99,SW,230,4.0,11.0,100,0.60,,,0.52,Wunderground v.1.15,2013-01-31 10:30:00,
2013-01-31 05:35:00,54.8,54.8,28.99,SE,145,5.0,11.0,100,0.56,,,0.56,Wunderground v.1.15,2013-01-31 10:35:00,
2013-01-31 05:40:00,54.8,54.8,28.99,WSW,246,5.0,5.0,100,0.11,,,0.57,Wunderground v.1.15,2013-01-31 10:40:00,
2013-01-31 05:50:00,54.7,54.7,29.00,SSW,200,4.0,4.0,100,0.11,,,0.58,Wunderground v.1.15,2013-01-31 10:50:00,
2013-01-31 05:55:00,54.2,54.2,28.99,WSW,238,3.0,4.0,100,0.11,,,0.59,Wunderground v.1.15,2013-01-31 10:55:00,
2013-01-31 06:00:00,54.1,54.1,28.99,SSE,157,2.0,3.0,100,0.07,,,0.60,Wunderground v.1.15,2013-01-31 11:00:00,
2013-01-31 06:10:00,52.6,52.6,29.00,SSW,204,2.0,3.0,100,0.05,,,0.60,Wunderground v.1.15,2013-01-31 11:10:00,
2013-01-31 06:15:00,51.9,51.9,29.00,SSW,193,1.0,3.0,100,0.05,,,0.61,Wunderground v.1.15,2013-01-31 11:15:00,
2013-01-31 06:20:00,51.4,51.4,29.01,South,183,2.0,2.0,100,0.10,,,0.62,Wunderground v.1.15,2013-01-31 11:20:00,
2013-01-31 06:30:00,51.3,51.3,28.99,West,275,1.0,1.0,100,0.07,,,0.63,Wunderground v.1.15,2013-01-31 11:30:00,
2013-01-31 06:35:00,51.1,51.1,28.98,SW,215,1.0,1.0,100,0.12,,,0.64,Wunderground v.1.15,2013-01-31 11:35:00,
2013-01-31 06:40:00,50.5,50.5,28.97,SE,135,1.0,1.0,100,0.07,,,0.64,Wunderground v.1.15,2013-01-31 11:40:00,
2013-01-31 06:45:00,49.8,49.8,28.97,South,179,2.0,2.0,100,0.04,,,0.64,Wunderground v.1.15,2013-01-31 11:45:00,
2013-01-31 06:55:00,49.5,49.5,28.94,ESE,108,2.0,3.0,100,0.00,,,0.65,Wunderground v.1.15,2013-01-31 11:55:00,
2013-01-31 07:00:00,49.6,49.6,28.94,SSW,212,1.0,1.0,100,0.00,,,0.65,Wunderground v.1.15,2013-01-31 12:00:00,
2013-01-31 07:10:00,49.2,49.2,28.94,ESE,118,1.0,2.0,100,0.00,,,0.65,Wunderground v.1.15,2013-01-31 12:10:00,
2013-01-31 07:15:00,48.8,48.8,28.93,SSW,205,2.0,2.0,100,0.00,,,0.65,Wunderground v.1.15,2013-01-31 12:15:00,
2013-01-31 07:20:00,48.5,48.5,28.94,SSW,209,2.0,2.0,100,0.00,,,0.65,Wunderground v.1.15,2013-01-31 12:20:00,
2013-01-31 07:30:00,49.1,49.1,28.94,SSE,165,3.0,3.0,100,0.00,,,0.66,Wunderground v.1.15,2013-01-31 12:30:00,
2013-01-31 07:35:00,49.4,49.4,28.93,West,271,3.0,3.0,100,0.00,,,0.66,Wunderground v.1.15,2013-01-31 12:35:00,
2013-01-31 07:40:00,50.2,50.2,28.92,South,182,3.0,4.0,100,0.00,,,0.66,Wunderground v.1.15,2013-01-31 12:40:00,
2013-01-31 07:45:00,50.5,50.5,28.92,WSW,245,4.0,4.0,100,0.00,,,0.66,Wunderground v.1.15,2013-01-31 12:45:00,
2013-01-31 07:55:00,50.8,50.8,29.00,WSW,244,5.0,5.0,100,0.00,,,0.66,Wunderground v.1.15,2013-01-31 12:55:00,
2013-01-31 08:00:00,47.0,47.0,29.01,NE,35,5.0,5.0,100,0.54,,,0.73,Wunderground v.1.15,2013-01-31 13:00:00,
2013-01-31 08:10:00,42.2,42.2,29.01,NNW,340,5.0,5.0,100,0.09,,,0.75,Wunderground v.1.15,2013-01-31 13:10:00,
2013-01-31 08:15:00,41.3,41.3,29.04,SE,138,4.0,5.0,100,0.07,,,0.76,Wunderground v.1.15,2013-01-31 13:15:00,
2013-01-31 08:20:00,40.8,40.8,29.04,WSW,238,4.0,4.0,100,0.07,,,0.76,Wunderground v.1.15,2013-01-31 13:20:00,
2013-01-31 08:25:00,40.3,40.3,29.05,SE,138,4.0,10.0,100,0.05,,,0.76,Wunderground v.1.15,2013-01-31 13:25:00,
2013-01-31 08:35:00,39.6,39.6,29.04,South,182,3.0,6.0,100,0.00,,,0.76,Wunderground v.1.15,2013-01-31 13:35:00,
2013-01-31 08:40:00,39.5,39.5,29.04,SW,234,3.0,3.0,100,0.00,,,0.76,Wunderground v.1.15,2013-01-31 13:40:00,
2013-01-31 08:45:00,39.3,39.3,29.05,SSE,157,3.0,3.0,100,0.00,,,0.76,Wunderground v.1.15,2013-01-31 13:45:00,
2013-01-31 08:50:00,39.1,39.1,29.06,SSE,161,3.0,3.0,100,0.00,,,0.76,Wunderground v.1.15,2013-01-31 13:50:00,
2013-01-31 08:55:00,38.9,38.9,29.06,SW,229,2.0,3.0,100,0.00,,,0.76,Wunderground v.1.15,2013-01-31 13:55:00,
2013-01-31 09:05:00,38.3,38.3,29.08,WNW,294,3.0,3.0,100,0.00,,,0.77,Wunderground v.1.15,2013-01-31 14:05:00,
2013-01-31 09:15:00,38.0,38.0,29.10,SSW,206,2.0,3.0,100,0.00,,,0.77,Wunderground v.1.15,2013-01-31 14:15:00,
2013-01-31 09:20:00,37.9,37.6,29.10,SE,136,1.0,1.0,99,0.00,,,0.77,Wunderground v.1.15,2013-01-31 14:20:00,
2013-01-31 09:25:00,37.9,37.6,29.11,ESE,123,1.0,1.0,99,0.00,,,0.77,Wunderground v.1.15,2013-01-31 14:25:00,
2013-01-31 09:35:00,37.5,37.0,29.12,WSW,252,3.0,3.0,98,0.00,,,0.77,Wunderground v.1.15,2013-01-31 14:35:00,
2013-01-31 09:40:00,37.5,36.7,29.12,South,180,3.0,3.0,97,0.00,,,0.77,Wunderground v.1.15,2013-01-31 14:40:00,
2013-01-31 09:45:00,37.5,36.5,29.11,ESE,121,2.0,7.0,96,0.00,,,0.77,Wunderground v.1.15,2013-01-31 14:45:00,
2013-01-31 09:55:00,38.0,36.7,29.12,South,178,3.0,4.0,95,0.00,,,0.77,Wunderground v.1.15,2013-01-31 14:55:00,
2013-01-31 10:00:00,38.2,36.1,29.12,SSW,208,2.0,2.0,92,0.00,,,0.77,Wunderground v.1.15,2013-01-31 15:00:00,
2013-01-31 10:10:00,38.3,35.9,29.13,SSW,209,2.0,2.0,91,0.00,,,0.77,Wunderground v.1.15,2013-01-31 15:10:00,
2013-01-31 10:15:00,38.2,35.8,29.15,NW,311,3.0,3.0,91,0.00,,,0.77,Wunderground v.1.15,2013-01-31 15:15:00,
2013-01-31 10:20:00,37.9,35.8,29.16,North,9,4.0,5.0,92,0.00,,,0.77,Wunderground v.1.15,2013-01-31 15:20:00,
2013-01-31 10:25:00,37.8,33.4,29.16,NNW,342,4.0,5.0,84,0.00,,,0.77,Wunderground v.1.15,2013-01-31 15:25:00,
2013-01-31 10:35:00,37.9,32.6,29.17,North,355,3.0,6.0,81,0.00,,,0.77,Wunderground v.1.15,2013-01-31 15:35:00,
2013-01-31 10:40:00,38.2,33.8,29.17,WSW,254,2.0,2.0,84,0.00,,,0.77,Wunderground v.1.15,2013-01-31 15:40:00,
2013-01-31 10:45:00,38.3,33.3,29.18,SSW,205,2.0,2.0,82,0.00,,,0.77,Wunderground v.1.15,2013-01-31 15:45:00,
2013-01-31 10:50:00,38.5,31.9,29.18,SW,236,2.0,4.0,77,0.00,,,0.77,Wunderground v.1.15,2013-01-31 15:50:00,
2013-01-31 11:00:00,38.2,30.0,29.18,NNW,336,4.0,4.0,72,0.00,,,0.77,Wunderground v.1.15,2013-01-31 16:00:00,
2013-01-31 11:05:00,38.5,30.9,29.19,ESE,104,4.0,4.0,74,0.00,,,0.77,Wunderground v.1.15,2013-01-31 16:05:00,
2013-01-31 11:15:00,38.8,28.8,29.21,SSW,211,4.0,11.0,67,0.00,,,0.77,Wunderground v.1.15,2013-01-31 16:15:00,
2013-01-31 11:20:00,38.8,28.8,29.19,SW,222,5.0,12.0,67,0.00,,,0.77,Wunderground v.1.15,2013-01-31 16:20:00,
2013-01-31 11:25:00,38.8,27.7,29.21,NW,307,5.0,12.0,64,0.00,,,0.77,Wunderground v.1.15,2013-01-31 16:25:00,
2013-01-31 11:35:00,39.5,26.8,29.21,West,275,5.0,6.0,60,0.00,,,0.77,Wunderground v.1.15,2013-01-31 16:35:00,
2013-01-31 11:40:00,39.5,26.3,29.21,SSW,201,5.0,5.0,59,0.00,,,0.77,Wunderground v.1.15,2013-01-31 16:40:00,
2013-01-31 11:45:00,39.3,26.2,29.22,SW,236,5.0,5.0,59,0.00,,,0.77,Wunderground v.1.15,2013-01-31 16:45:00,
2013-01-31 11:55:00,39.1,26.0,29.22,West,276,5.0,6.0,59,0.00,,,0.77,Wunderground v.1.15,2013-01-31 16:55:00,
2013-01-31 12:00:00,38.8,28.0,29.22,SSW,202,5.0,6.0,65,0.00,,,0.77,Wunderground v.1.15,2013-01-31 17:00:00,
2013-01-31 12:05:00,38.5,26.6,29.22,WNW,303,6.0,6.0,62,0.00,,,0.77,Wunderground v.1.15,2013-01-31 17:05:00,
2013-01-31 12:15:00,38.2,25.1,29.23,SW,236,6.0,10.0,59,0.00,,,0.77,Wunderground v.1.15,2013-01-31 17:15:00,
2013-01-31 12:20:00,38.3,25.2,29.23,SSE,163,6.0,6.0,59,0.00,,,0.77,Wunderground v.1.15,2013-01-31 17:20:00,
2013-01-31 12:25:00,38.6,25.1,29.24,SW,234,5.0,6.0,58,0.00,,,0.77,Wunderground v.1.15,2013-01-31 17:25:00,
2013-01-31 12:35:00,38.9,24.1,29.25,West,261,4.0,10.0,55,0.00,,,0.77,Wunderground v.1.15,2013-01-31 17:35:00,
2013-01-31 12:40:00,39.2,23.5,29.25,South,173,4.0,4.0,53,0.00,,,0.77,Wunderground v.1.15,2013-01-31 17:40:00,
2013-01-31 12:45:00,39.6,26.4,29.25,WSW,257,4.0,4.0,59,0.00,,,0.77,Wunderground v.1.15,2013-01-31 17:45:00,
2013-01-31 12:55:00,39.6,22.5,29.25,SE,138,4.0,5.0,50,0.00,,,0.77,Wunderground v.1.15,2013-01-31 17:55:00,
2013-01-31 13:00:00,39.5,22.4,29.26,WSW,247,5.0,5.0,50,0.00,,,0.77,Wunderground v.1.15,2013-01-31 18:00:00,
2013-01-31 13:10:00,39.3,23.6,29.27,West,279,4.0,4.0,53,0.00,,,0.77,Wunderground v.1.15,2013-01-31 18:10:00,
2013-01-31 13:15:00,39.1,23.8,29.28,NE,44,4.0,4.0,54,0.00,,,0.77,Wunderground v.1.15,2013-01-31 18:15:00,
2013-01-31 13:20:00,38.5,21.0,29.28,NNE,17,2.0,2.0,49,0.00,,,0.77,Wunderground v.1.15,2013-01-31 18:20:00,
2013-01-31 13:25:00,37.9,22.3,29.28,ENE,67,3.0,3.0,53,0.00,,,0.77,Wunderground v.1.15,2013-01-31 18:25:00,
2013-01-31 13:35:00,37.8,21.3,29.29,SSW,212,4.0,9.0,51,0.00,,,0.77,Wunderground v.1.15,2013-01-31 18:35:00,
2013-01-31 13:40:00,37.8,20.3,29.28,SW,236,4.0,4.0,49,0.00,,,0.77,Wunderground v.1.15,2013-01-31 18:40:00,
2013-01-31 13:45:00,38.0,20.0,29.29,SW,223,4.0,4.0,48,0.00,,,0.77,Wunderground v.1.15,2013-01-31 18:45:00,
2013-01-31 13:55:00,38.3,20.8,29.30,SSE,147,3.0,5.0,49,0.00,,,0.77,Wunderground v.1.15,2013-01-31 18:55:00,
2013-01-31 14:00:00,38.2,20.2,29.31,South,180,3.0,3.0,48,0.00,,,0.77,Wunderground v.1.15,2013-01-31 19:00:00,
2013-01-31 14:05:00,37.8,23.5,29.31,North,355,4.0,4.0,56,0.00,,,0.77,Wunderground v.1.15,2013-01-31 19:05:00,
2013-01-31 14:15:00,37.0,21.4,29.32,SSW,204,3.0,6.0,53,0.00,,,0.77,Wunderground v.1.15,2013-01-31 19:15:00,
2013-01-31 14:20:00,36.9,20.4,29.32,NNE,15,3.0,5.0,51,0.00,,,0.77,Wunderground v.1.15,2013-01-31 19:20:00,
2013-01-31 14:25:00,36.8,20.3,29.32,SSW,208,3.0,5.0,51,0.00,,,0.77,Wunderground v.1.15,2013-01-31 19:25:00,
2013-01-31 14:30:00,36.9,18.5,29.32,SW,217,4.0,4.0,47,0.00,,,0.77,Wunderground v.1.15,2013-01-31 19:30:00,
2013-01-31 14:40:00,36.9,20.0,29.33,ENE,63,3.0,3.0,50,0.00,,,0.77,Wunderground v.1.15,2013-01-31 19:40:00,
2013-01-31 14:45:00,36.8,20.8,29.34,SSE,155,3.0,3.0,52,0.00,,,0.77,Wunderground v.1.15,2013-01-31 19:45:00,
2013-01-31 14:50:00,36.6,22.8,29.34,South,175,2.0,2.0,57,0.00,,,0.77,Wunderground v.1.15,2013-01-31 19:50:00,
2013-01-31 15:00:00,36.0,20.1,29.35,South,169,3.0,4.0,52,0.00,,,0.77,Wunderground v.1.15,2013-01-31 20:00:00,
2013-01-31 15:10:00,35.9,21.3,29.35,SSW,205,3.0,3.0,55,0.00,,,0.77,Wunderground v.1.15,2013-01-31 20:10:00,
2013-01-31 15:15:00,35.9,21.7,29.35,ENE,59,3.0,3.0,56,0.00,,,0.77,Wunderground v.1.15,2013-01-31 20:15:00,
2013-01-31 15:20:00,35.8,22.5,29.36,SW,236,3.0,3.0,58,0.00,,,0.77,Wunderground v.1.15,2013-01-31 20:20:00,
2013-01-31 15:25:00,35.6,19.2,29.36,SSW,200,2.0,3.0,51,0.00,,,0.77,Wunderground v.1.15,2013-01-31 20:25:00,
2013-01-31 15:35:00,35.5,20.0,29.37,WSW,240,3.0,3.0,53,0.00,,,0.77,Wunderground v.1.15,2013-01-31 20:35:00,
2013-01-31 15:40:00,35.3,19.9,29.37,WSW,242,2.0,2.0,53,0.00,,,0.77,Wunderground v.1.15,2013-01-31 20:40:00,
2013-01-31 15:45:00,35.2,19.8,29.38,SSW,207,2.0,2.0,53,0.00,,,0.77,Wunderground v.1.15,2013-01-31 20:45:00,
2013-01-31 15:50:00,35.0,20.4,29.38,West,281,2.0,2.0,55,0.00,,,0.77,Wunderground v.1.15,2013-01-31 20:50:00,
2013-01-31 16:00:00,34.6,19.6,29.39,ENE,70,2.0,3.0,54,0.00,,,0.77,Wunderground v.1.15,2013-01-31 21:00:00,
2013-01-31 16:05:00,34.4,19.5,29.39,SE,140,3.0,4.0,54,0.00,,,0.77,Wunderground v.1.15,2013-01-31 21:05:00,
2013-01-31 16:15:00,34.3,22.2,29.40,SW,232,4.0,4.0,61,0.00,,,0.77,Wunderground v.1.15,2013-01-31 21:15:00,
2013-01-31 16:20:00,34.1,20.4,29.40,South,173,3.0,5.0,57,0.00,,,0.77,Wunderground v.1.15,2013-01-31 21:20:00,
2013-01-31 16:25:00,34.1,19.6,29.40,SW,217,3.0,6.0,55,0.00,,,0.77,Wunderground v.1.15,2013-01-31 21:25:00,
2013-01-31 16:30:00,34.0,19.9,29.40,SW,215,3.0,3.0,56,0.00,,,0.77,Wunderground v.1.15,2013-01-31 21:30:00,
2013-01-31 16:40:00,33.8,22.1,29.41,North,355,1.0,1.0,62,0.00,,,0.77,Wunderground v.1.15,2013-01-31 21:40:00,
2013-01-31 16:45:00,33.8,19.3,29.41,NW,321,3.0,3.0,55,0.00,,,0.77,Wunderground v.1.15,2013-01-31 21:45:00,
2013-01-31 16:55:00,33.7,17.0,29.42,ESE,117,5.0,5.0,50,0.00,,,0.77,Wunderground v.1.15,2013-01-31 21:55:00,
2013-01-31 17:00:00,33.7,17.9,29.42,East,96,4.0,4.0,52,0.00,,,0.77,Wunderground v.1.15,2013-01-31 22:00:00,
2013-01-31 17:05:00,33.4,17.6,29.42,SW,215,3.0,4.0,52,0.00,,,0.77,Wunderground v.1.15,2013-01-31 22:05:00,
2013-01-31 17:15:00,33.1,16.9,29.43,South,184,3.0,5.0,51,0.00,,,0.77,Wunderground v.1.15,2013-01-31 22:15:00,
2013-01-31 17:20:00,33.1,16.5,29.43,SSE,164,3.0,3.0,50,0.00,,,0.77,Wunderground v.1.15,2013-01-31 22:20:00,
2013-01-31 17:25:00,32.8,16.6,29.43,South,174,3.0,4.0,51,0.00,,,0.77,Wunderground v.1.15,2013-01-31 22:25:00,
2013-01-31 17:35:00,32.5,18.1,29.44,South,186,3.0,3.0,55,0.00,,,0.77,Wunderground v.1.15,2013-01-31 22:35:00,
2013-01-31 17:40:00,32.2,19.9,29.45,WNW,288,3.0,3.0,60,0.00,,,0.77,Wunderground v.1.15,2013-01-31 22:40:00,
2013-01-31 17:45:00,32.1,17.7,29.45,WSW,246,3.0,3.0,55,0.00,,,0.77,Wunderground v.1.15,2013-01-31 22:45:00,
2013-01-31 17:50:00,32.1,19.0,29.45,SW,223,2.0,5.0,58,0.00,,,0.77,Wunderground v.1.15,2013-01-31 22:50:00,
2013-01-31 18:00:00,31.8,19.1,29.46,SSW,192,2.0,2.0,59,0.00,,,0.77,Wunderground v.1.15,2013-01-31 23:00:00,
2013-01-31 18:05:00,31.6,18.9,29.46,East,89,2.0,3.0,59,0.00,,,0.77,Wunderground v.1.15,2013-01-31 23:05:00,
2013-01-31 18:15:00,31.3,19.0,29.47,NW,319,1.0,3.0,60,0.00,,,0.77,Wunderground v.1.15,2013-01-31 23:15:00,
2013-01-31 18:20:00,31.2,19.3,29.47,South,185,1.0,18.0,61,0.00,,,0.77,Wunderground v.1.15,2013-01-31 23:20:00,
2013-01-31 18:25:00,31.0,17.9,29.48,WSW,255,2.0,18.0,58,0.00,,,0.77,Wunderground v.1.15,2013-01-31 23:25:00,
2013-01-31 18:30:00,31.2,19.3,29.48,SSW,213,3.0,3.0,61,0.00,,,0.77,Wunderground v.1.15,2013-01-31 23:30:00,
2013-01-31 18:40:00,31.2,18.1,29.49,SSW,205,2.0,3.0,58,0.00,,,0.77,Wunderground v.1.15,2013-01-31 23:40:00,
2013-01-31 18:45:00,31.2,18.1,29.50,NNE,30,2.0,4.0,58,0.00,,,0.77,Wunderground v.1.15,2013-01-31 23:45:00,
2013-01-31 18:50:00,31.2,18.1,29.50,West,269,2.0,2.0,58,0.00,,,0.77,Wunderground v.1.15,2013-01-31 23:50:00,
2013-01-31 19:00:00,30.9,19.4,29.51,WNW,286,3.0,5.0,62,0.00,,,0.77,Wunderground v.1.15,2013-02-01 00:00:00,
2013-01-31 19:05:00,30.7,18.1,29.52,NNW,336,4.0,5.0,59,0.00,,,0.77,Wunderground v.1.15,2013-02-01 00:05:00,
2013-01-31 19:15:00,30.3,17.3,29.52,SSE,165,3.0,10.0,58,0.00,,,0.77,Wunderground v.1.15,2013-02-01 00:15:00,
2013-01-31 19:20:00,30.3,16.9,29.52,South,177,3.0,7.0,57,0.00,,,0.77,Wunderground v.1.15,2013-02-01 00:20:00,
2013-01-31 19:25:00,30.1,16.3,29.52,East,95,3.0,7.0,56,0.00,,,0.77,Wunderground v.1.15,2013-02-01 00:25:00,
2013-01-31 19:30:00,30.1,15.9,29.52,NNW,330,3.0,3.0,55,0.00,,,0.77,Wunderground v.1.15,2013-02-01 00:30:00,
2013-01-31 19:40:00,30.3,16.9,29.53,WNW,302,2.0,2.0,57,0.00,,,0.77,Wunderground v.1.15,2013-02-01 00:40:00,
2013-01-31 19:45:00,30.4,17.8,29.54,NNW,346,2.0,6.0,59,0.00,,,0.77,Wunderground v.1.15,2013-02-01 00:45:00,
2013-01-31 19:50:00,30.4,18.5,29.54,SSW,207,3.0,5.0,61,0.00,,,0.77,Wunderground v.1.15,2013-02-01 00:50:00,
2013-01-31 20:00:00,30.0,18.5,29.55,WSW,257,3.0,3.0,62,0.00,,,0.77,Wunderground v.1.15,2013-02-01 01:00:00,
2013-01-31 20:05:00,29.7,16.7,29.55,SW,217,4.0,6.0,58,0.00,,,0.77,Wunderground v.1.15,2013-02-01 01:05:00,
2013-01-31 20:10:00,29.4,17.2,29.55,NW,319,3.0,3.0,60,0.00,,,0.77,Wunderground v.1.15,2013-02-01 01:10:00,
2013-01-31 20:20:00,29.1,18.1,29.55,SSE,165,3.0,3.0,63,0.00,,,0.77,Wunderground v.1.15,2013-02-01 01:20:00,
2013-01-31 20:25:00,29.0,16.8,29.55,SW,224,3.0,4.0,60,0.00,,,0.77,Wunderground v.1.15,2013-02-01 01:25:00,
2013-01-31 20:30:00,28.8,16.6,29.55,SSW,198,3.0,4.0,60,0.00,,,0.77,Wunderground v.1.15,2013-02-01 01:30:00,
2013-01-31 20:40:00,28.7,15.8,29.56,South,183,2.0,4.0,58,0.00,,,0.77,Wunderground v.1.15,2013-02-01 01:40:00,
2013-01-31 20:45:00,28.7,16.9,29.56,SSE,163,2.0,4.0,61,0.00,,,0.77,Wunderground v.1.15,2013-02-01 01:45:00,
2013-01-31 20:50:00,28.5,16.7,29.56,South,175,1.0,1.0,61,0.00,,,0.77,Wunderground v.1.15,2013-02-01 01:50:00,
2013-01-31 21:00:00,28.4,17.4,29.56,NE,53,2.0,3.0,63,0.00,,,0.77,Wunderground v.1.15,2013-02-01 02:00:00,
2013-01-31 21:05:00,28.4,16.7,29.56,SW,232,3.0,6.0,61,0.00,,,0.77,Wunderground v.1.15,2013-02-01 02:05:00,
2013-01-31 21:15:00,28.4,16.3,29.57,South,173,2.0,3.0,60,0.00,,,0.77,Wunderground v.1.15,2013-02-01 02:15:00,
2013-01-31 21:20:00,28.4,14.3,29.57,WSW,239,3.0,3.0,55,0.00,,,0.77,Wunderground v.1.15,2013-02-01 02:20:00,
2013-01-31 21:25:00,28.4,14.7,29.57,SSW,202,3.0,3.0,56,0.00,,,0.77,Wunderground v.1.15,2013-02-01 02:25:00,
2013-01-31 21:30:00,28.4,15.9,29.57,WSW,244,2.0,2.0,59,0.00,,,0.77,Wunderground v.1.15,2013-02-01 02:30:00,
2013-01-31 21:40:00,28.4,14.7,29.57,South,178,3.0,3.0,56,0.00,,,0.77,Wunderground v.1.15,2013-02-01 02:40:00,
2013-01-31 21:45:00,28.2,13.7,29.57,NW,314,2.0,3.0,54,0.00,,,0.77,Wunderground v.1.15,2013-02-01 02:45:00,
2013-01-31 21:50:00,28.2,13.2,29.57,SW,225,2.0,4.0,53,0.00,,,0.77,Wunderground v.1.15,2013-02-01 02:50:00,
2013-01-31 21:55:00,28.2,12.8,29.58,SE,144,3.0,4.0,52,0.00,,,0.77,Wunderground v.1.15,2013-02-01 02:55:00,
2013-01-31 22:05:00,28.2,13.2,29.58,South,186,3.0,3.0,53,0.00,,,0.77,Wunderground v.1.15,2013-02-01 03:05:00,
2013-01-31 22:10:00,28.2,12.4,29.58,NNW,329,3.0,3.0,51,0.00,,,0.77,Wunderground v.1.15,2013-02-01 03:10:00,
2013-01-31 22:20:00,28.1,14.0,29.58,SSW,208,3.0,5.0,55,0.00,,,0.77,Wunderground v.1.15,2013-02-01 03:20:00,
2013-01-31 22:25:00,28.1,13.1,29.58,SW,217,3.0,5.0,53,0.00,,,0.77,Wunderground v.1.15,2013-02-01 03:25:00,
2013-01-31 22:30:00,27.9,13.8,29.58,SW,217,3.0,3.0,55,0.00,,,0.77,Wunderground v.1.15,2013-02-01 03:30:00,
2013-01-31 22:40:00,27.8,12.4,29.58,SE,142,1.0,1.0,52,0.00,,,0.77,Wunderground v.1.15,2013-02-01 03:40:00,
2013-01-31 22:45:00,27.6,13.9,29.58,East,100,1.0,2.0,56,0.00,,,0.77,Wunderground v.1.15,2013-02-01 03:45:00,
2013-01-31 22:50:00,27.6,13.9,29.58,NNW,329,3.0,3.0,56,0.00,,,0.77,Wunderground v.1.15,2013-02-01 03:50:00,
2013-01-31 23:00:00,27.6,15.1,29.59,SE,129,2.0,4.0,59,0.00,,,0.77,Wunderground v.1.15,2013-02-01 04:00:00,
2013-01-31 23:05:00,27.6,15.9,29.59,SSW,199,2.0,4.0,61,0.00,,,0.77,Wunderground v.1.15,2013-02-01 04:05:00,
2013-01-31 23:10:00,27.5,16.9,29.59,South,175,2.0,2.0,64,0.00,,,0.77,Wunderground v.1.15,2013-02-01 04:10:00,
2013-01-31 23:20:00,27.3,17.1,29.59,SSW,198,1.0,2.0,65,0.00,,,0.77,Wunderground v.1.15,2013-02-01 04:20:00,
2013-01-31 23:25:00,27.2,16.3,29.59,NNW,327,2.0,2.0,63,0.00,,,0.77,Wunderground v.1.15,2013-02-01 04:25:00,
2013-01-31 23:30:00,27.2,15.9,29.59,SSW,213,1.0,2.0,62,0.00,,,0.77,Wunderground v.1.15,2013-02-01 04:30:00,
2013-01-31 23:40:00,27.0,14.6,29.59,South,191,3.0,3.0,59,0.00,,,0.77,Wunderground v.1.15,2013-02-01 04:40:00,
2013-01-31 23:45:00,27.0,14.9,29.59,SSW,200,2.0,3.0,60,0.00,,,0.77,Wunderground v.1.15,2013-02-01 04:45:00,
2013-01-31 23:50:00,27.0,16.1,29.60,South,190,2.0,2.0,63,0.00,,,0.77,Wunderground v.1.15,2013-02-01 04:50:00,
2013-01-31 23:55:00,27.0,13.8,29.60,SSW,204,3.0,5.0,57,0.00,,,0.77,Wunderground v.1.15,2013-02-01 04:55:00,